Time,TemperatureF,DewpointF,PressureIn,WindDirection,WindDirectionDegrees,WindSpeedMPH,WindSpeedGustMPH,Humidity,HourlyPrecipIn,Conditions,Clouds,dailyrainin,SoftwareType,DateUTC
2013-01-25 00:10:00,43.5,0.0,30.11,NW,318,0.0,0.0,0,0.00,CLR,CLR,0.00,WeatherDisplay:10.36,2013-01-25 07:10:00,
2013-01-25 00:25:00,44.0,0.0,30.12,NW,318,0.0,0.0,0,0.00,CLR,CLR,0.00,WeatherDisplay:10.36,2013-01-25 07:25:00,
2013-01-25 00:40:00,44.3,0.0,30.12,NW,318,0.0,2.0,0,0.00,CLR,CLR,0.00,WeatherDisplay:10.36,2013-01-25 07:40:00,
2013-01-25 00:55:00,44.1,0.0,30.12,NW,315,0.0,6.0,0,0.00,CLR,CLR,0.00,WeatherDisplay:10.36,2013-01-25 07:55:00,
2013-01-25 01:10:00,42.4,0.0,30.12,NW,313,0.0,0.0,0,0.00,CLR,CLR,0.00,WeatherDisplay:10.36,2013-01-25 08:10:00,
2013-01-25 01:25:00,42.6,0.0,30.13,NW,313,0.0,0.0,0,0.00,CLR,CLR,0.00,WeatherDisplay:10.36,2013-01-25 08:25:00,
2013-01-25 01:40:00,41.2,0.0,30.14,ENE,67,0.0,7.0,0,0.00,CLR,CLR,0.00,WeatherDisplay:10.36,2013-01-25 08:40:00,
2013-01-25 01:55:00,40.4,0.0,30.14,ENE,64,0.0,0.0,0,0.00,CLR,CLR,0.00,WeatherDisplay:10.36,2013-01-25 08:55:00,
2013-01-25 02:10:00,39.2,0.0,30.14,ENE,64,0.0,0.0,0,0.00,CLR,CLR,0.00,WeatherDisplay:10.36,2013-01-25 09:10:00,
2013-01-25 02:25:00,38.0,0.0,30.13,ENE,64,0.0,0.0,0,0.00,CLR,CLR,0.00,WeatherDisplay:10.36,2013-01-25 09:25:00,
2013-01-25 02:40:00,37.0,0.0,30.14,ENE,64,0.0,0.0,0,0.00,CLR,CLR,0.00,WeatherDisplay:10.36,2013-01-25 09:40:00,
2013-01-25 02:55:00,36.6,0.0,30.14,ENE,64,0.0,0.0,0,0.00,CLR,CLR,0.00,WeatherDisplay:10.36,2013-01-25 09:55:00,
2013-01-25 03:10:00,35.0,0.0,30.13,ENE,64,0.0,0.0,0,0.00,CLR,CLR,0.00,WeatherDisplay:10.36,2013-01-25 10:10:00,
2013-01-25 03:25:00,34.6,0.0,30.14,ENE,64,0.0,0.0,0,0.00,CLR,CLR,0.00,WeatherDisplay:10.36,2013-01-25 10:25:00,
2013-01-25 03:40:00,34.7,0.0,30.12,ENE,64,0.0,0.0,0,0.00,CLR,CLR,0.00,WeatherDisplay:10.36,2013-01-25 10:40:00,
2013-01-25 03:55:00,33.8,0.0,30.12,ENE,64,0.0,0.0,0,0.00,CLR,CLR,0.00,WeatherDisplay:10.36,2013-01-25 10:55:00,
2013-01-25 04:10:00,33.4,0.0,30.12,ENE,64,0.0,0.0,0,0.00,CLR,CLR,0.00,WeatherDisplay:10.36,2013-01-25 11:10:00,
2013-01-25 04:25:00,33.4,0.0,30.11,ENE,64,0.0,0.0,0,0.00,CLR,CLR,0.00,WeatherDisplay:10.36,2013-01-25 11:25:00,
2013-01-25 04:40:00,32.6,0.0,30.12,ENE,64,0.0,0.0,0,0.00,CLR,CLR,0.00,WeatherDisplay:10.36,2013-01-25 11:40:00,
2013-01-25 04:55:00,31.9,0.0,30.11,ENE,64,0.0,0.0,0,0.00,CLR,CLR,0.00,WeatherDisplay:10.36,2013-01-25 11:55:00,
2013-01-25 05:10:00,31.5,0.0,30.12,ENE,64,0.0,0.0,0,0.00,CLR,CLR,0.00,WeatherDisplay:10.36,2013-01-25 12:10:00,
2013-01-25 05:25:00,31.4,0.0,30.12,ENE,64,0.0,0.0,0,0.00,CLR,CLR,0.00,WeatherDisplay:10.36,2013-01-25 12:25:00,
2013-01-25 05:40:00,30.8,0.0,30.12,ENE,64,0.0,0.0,0,0.00,CLR,CLR,0.00,WeatherDisplay:10.36,2013-01-25 12:40:00,
2013-01-25 05:55:00,30.7,0.0,30.12,ENE,64,0.0,0.0,0,0.00,CLR,CLR,0.00,WeatherDisplay:10.36,2013-01-25 12:55:00,
2013-01-25 06:10:00,30.2,0.0,30.13,ENE,64,0.0,0.0,0,0.00,CLR,CLR,0.00,WeatherDisplay:10.36,2013-01-25 13:10:00,
2013-01-25 06:25:00,30.8,0.0,30.14,ENE,64,0.0,0.0,0,0.00,CLR,CLR,0.00,WeatherDisplay:10.36,2013-01-25 13:25:00,
2013-01-25 06:40:00,30.8,0.0,30.14,ENE,64,0.0,0.0,0,0.00,CLR,CLR,0.00,WeatherDisplay:10.36,2013-01-25 13:40:00,
2013-01-25 06:55:00,32.7,0.0,30.15,ENE,64,0.0,0.0,0,0.00,CLR,CLR,0.00,WeatherDisplay:10.36,2013-01-25 13:55:00,
2013-01-25 07:10:00,33.1,0.0,30.15,ENE,64,0.0,0.0,0,0.00,CLR,CLR,0.00,WeatherDisplay:10.36,2013-01-25 14:10:00,
2013-01-25 07:25:00,33.2,0.0,30.16,ENE,58,0.0,8.0,0,0.00,CLR,CLR,0.00,WeatherDisplay:10.36,2013-01-25 14:25:00,
2013-01-25 07:40:00,32.8,0.0,30.16,ENE,58,0.0,0.0,0,0.00,CLR,CLR,0.00,WeatherDisplay:10.36,2013-01-25 14:40:00,
2013-01-25 07:55:00,33.3,0.0,30.16,ENE,58,0.0,0.0,0,0.00,CLR,CLR,0.00,WeatherDisplay:10.36,2013-01-25 14:55:00,
2013-01-25 08:10:00,35.1,0.0,30.16,ESE,120,0.0,5.0,0,0.00,CLR,CLR,0.00,WeatherDisplay:10.36,2013-01-25 15:10:00,
2013-01-25 08:25:00,36.1,0.0,30.16,ESE,120,0.0,0.0,0,0.00,CLR,CLR,0.00,WeatherDisplay:10.36,2013-01-25 15:25:00,
2013-01-25 08:40:00,37.0,0.0,30.16,ESE,120,0.0,0.0,0,0.00,CLR,CLR,0.00,WeatherDisplay:10.36,2013-01-25 15:40:00,
2013-01-25 08:55:00,39.3,0.0,30.16,ESE,120,0.0,0.0,0,0.00,CLR,CLR,0.00,WeatherDisplay:10.36,2013-01-25 15:55:00,
2013-01-25 09:10:00,41.4,0.0,30.15,ESE,120,0.0,0.0,0,0.00,CLR,CLR,0.00,WeatherDisplay:10.36,2013-01-25 16:10:00,
2013-01-25 09:25:00,43.3,0.0,30.15,ESE,120,0.0,0.0,0,0.00,CLR,CLR,0.00,WeatherDisplay:10.36,2013-01-25 16:25:00,
2013-01-25 09:40:00,44.5,0.0,30.16,ESE,120,0.0,0.0,0,0.00,CLR,CLR,0.00,WeatherDisplay:10.36,2013-01-25 16:40:00,
2013-01-25 09:55:00,46.4,0.0,30.15,ESE,120,0.0,1.0,0,0.00,CLR,CLR,0.00,WeatherDisplay:10.36,2013-01-25 16:55:00,
2013-01-25 10:10:00,47.8,0.0,30.15,ESE,120,0.0,0.0,0,0.00,CLR,CLR,0.00,WeatherDisplay:10.36,2013-01-25 17:10:00,
2013-01-25 10:25:00,48.3,0.0,30.15,ESE,120,0.0,0.0,0,0.00,CLR,CLR,0.00,WeatherDisplay:10.36,2013-01-25 17:25:00,
2013-01-25 10:40:00,48.5,0.0,30.15,ESE,120,0.0,0.0,0,0.00,CLR,CLR,0.00,WeatherDisplay:10.36,2013-01-25 17:40:00,
2013-01-25 10:55:00,49.5,0.0,30.14,ESE,120,0.0,0.0,0,0.00,CLR,CLR,0.00,WeatherDisplay:10.36,2013-01-25 17:55:00,
2013-01-25 11:10:00,50.7,0.0,30.13,ESE,120,0.0,0.0,0,0.00,CLR,CLR,0.00,WeatherDisplay:10.36,2013-01-25 18:10:00,
2013-01-25 11:25:00,51.6,0.0,30.12,ESE,121,0.0,5.0,0,0.00,CLR,CLR,0.00,WeatherDisplay:10.36,2013-01-25 18:25:00,
2013-01-25 11:40:00,52.8,0.0,30.12,ESE,121,0.0,0.0,0,0.00,CLR,CLR,0.00,WeatherDisplay:10.36,2013-01-25 18:40:00,
2013-01-25 11:55:00,53.7,0.0,30.11,ESE,116,0.0,7.0,0,0.00,CLR,CLR,0.00,WeatherDisplay:10.36,2013-01-25 18:55:00,
2013-01-25 12:10:00,53.3,0.0,30.10,South,189,0.0,6.0,0,0.00,CLR,CLR,0.00,WeatherDisplay:10.36,2013-01-25 19:10:00,
2013-01-25 12:25:00,54.2,0.0,30.09,ESE,112,0.0,5.0,0,0.00,CLR,CLR,0.00,WeatherDisplay:10.36,2013-01-25 19:25:00,
2013-01-25 12:40:00,54.4,0.0,30.08,SSE,147,1.0,6.0,0,0.00,CLR,CLR,0.00,WeatherDisplay:10.36,2013-01-25 19:40:00,
2013-01-25 12:55:00,54.7,0.0,30.07,SE,138,0.0,6.0,0,0.00,CLR,CLR,0.00,WeatherDisplay:10.36,2013-01-25 19:55:00,
2013-01-25 13:10:00,55.5,0.0,30.07,SE,138,0.0,0.0,0,0.00,CLR,CLR,0.00,WeatherDisplay:10.36,2013-01-25 20:10:00,
2013-01-25 13:25:00,56.1,0.0,30.06,ESE,120,0.0,6.0,0,0.00,CLR,CLR,0.00,WeatherDisplay:10.36,2013-01-25 20:25:00,
2013-01-25 13:40:00,56.9,0.0,30.06,ESE,120,0.0,0.0,0,0.00,CLR,CLR,0.00,WeatherDisplay:10.36,2013-01-25 20:40:00,
2013-01-25 13:55:00,58.8,0.0,30.04,SE,144,0.0,3.0,0,0.00,CLR,CLR,0.00,WeatherDisplay:10.36,2013-01-25 20:55:00,
2013-01-25 14:10:00,58.1,0.0,30.04,NNE,14,2.0,8.0,0,0.00,CLR,CLR,0.00,WeatherDisplay:10.36,2013-01-25 21:10:00,
2013-01-25 14:25:00,58.8,0.0,30.04,NE,39,2.0,8.0,0,0.00,CLR,CLR,0.00,WeatherDisplay:10.36,2013-01-25 21:25:00,
2013-01-25 14:40:00,58.8,0.0,30.05,NE,38,2.0,12.0,0,0.00,CLR,CLR,0.00,WeatherDisplay:10.36,2013-01-25 21:40:00,
2013-01-25 14:55:00,58.3,0.0,30.06,NE,48,0.0,11.0,0,0.00,CLR,CLR,0.00,WeatherDisplay:10.36,2013-01-25 21:55:00,
2013-01-25 15:10:00,57.7,0.0,30.06,NE,48,0.0,0.0,0,0.00,CLR,CLR,0.00,WeatherDisplay:10.36,2013-01-25 22:10:00,
2013-01-25 15:25:00,55.2,0.0,30.07,NNE,31,0.0,5.0,0,0.00,CLR,CLR,0.00,WeatherDisplay:10.36,2013-01-25 22:25:00,
2013-01-25 15:40:00,53.5,0.0,30.07,NNE,31,0.0,0.0,0,0.00,CLR,CLR,0.00,WeatherDisplay:10.36,2013-01-25 22:40:00,
2013-01-25 15:55:00,52.2,0.0,30.07,NNE,31,0.0,0.0,0,0.00,CLR,CLR,0.00,WeatherDisplay:10.36,2013-01-25 22:55:00,
2013-01-25 16:10:00,51.0,0.0,30.08,NNW,339,0.0,5.0,0,0.00,CLR,CLR,0.00,WeatherDisplay:10.36,2013-01-25 23:10:00,
2013-01-25 16:25:00,50.1,0.0,30.08,NNW,329,0.0,0.0,0,0.00,CLR,CLR,0.00,WeatherDisplay:10.36,2013-01-25 23:25:00,
2013-01-25 16:40:00,50.1,0.0,30.08,NNW,329,0.0,0.0,0,0.00,CLR,CLR,0.00,WeatherDisplay:10.36,2013-01-25 23:40:00,
2013-01-25 16:55:00,49.7,0.0,30.08,NNW,329,0.0,0.0,0,0.00,CLR,CLR,0.00,WeatherDisplay:10.36,2013-01-25 23:55:00,
2013-01-25 17:10:00,48.5,0.0,30.08,NNW,329,0.0,0.0,0,0.00,CLR,CLR,0.00,WeatherDisplay:10.36,2013-01-26 00:10:00,
2013-01-25 17:25:00,47.2,0.0,30.07,NNW,329,0.0,0.0,0,0.00,CLR,CLR,0.00,WeatherDisplay:10.36,2013-01-26 00:25:00,
2013-01-25 17:40:00,45.6,0.0,30.08,NNW,329,0.0,0.0,0,0.00,CLR,CLR,0.00,WeatherDisplay:10.36,2013-01-26 00:40:00,
2013-01-25 17:55:00,44.4,0.0,30.08,NNW,329,0.0,0.0,0,0.00,CLR,CLR,0.00,WeatherDisplay:10.36,2013-01-26 00:55:00,
2013-01-25 18:10:00,43.4,0.0,30.09,NNW,329,0.0,0.0,0,0.00,CLR,CLR,0.00,WeatherDisplay:10.36,2013-01-26 01:10:00,
2013-01-25 18:25:00,42.2,0.0,30.09,NNW,329,0.0,0.0,0,0.00,CLR,CLR,0.00,WeatherDisplay:10.36,2013-01-26 01:25:00,
2013-01-25 18:40:00,42.1,0.0,30.08,NNW,329,0.0,0.0,0,0.00,CLR,CLR,0.00,WeatherDisplay:10.36,2013-01-26 01:40:00,
2013-01-25 18:55:00,40.7,0.0,30.09,NNW,329,0.0,0.0,0,0.00,CLR,CLR,0.00,WeatherDisplay:10.36,2013-01-26 01:55:00,
2013-01-25 19:10:00,39.7,0.0,30.09,NNW,329,0.0,0.0,0,0.00,CLR,CLR,0.00,WeatherDisplay:10.36,2013-01-26 02:10:00,
2013-01-25 19:25:00,39.3,0.0,30.09,NNW,329,0.0,0.0,0,0.00,CLR,CLR,0.00,WeatherDisplay:10.36,2013-01-26 02:25:00,
2013-01-25 19:40:00,38.6,0.0,30.08,NNW,329,0.0,0.0,0,0.00,CLR,CLR,0.00,WeatherDisplay:10.36,2013-01-26 02:40:00,
2013-01-25 19:55:00,38.9,0.0,30.08,NNW,329,0.0,0.0,0,0.00,CLR,CLR,0.00,WeatherDisplay:10.36,2013-01-26 02:55:00,
2013-01-25 20:10:00,38.2,0.0,30.08,NNW,329,0.0,0.0,0,0.00,CLR,CLR,0.00,WeatherDisplay:10.36,2013-01-26 03:10:00,
2013-01-25 20:25:00,37.2,0.0,30.08,NNW,329,0.0,0.0,0,0.00,CLR,CLR,0.00,WeatherDisplay:10.36,2013-01-26 03:25:00,
2013-01-25 20:40:00,37.5,0.0,30.08,NNW,329,0.0,0.0,0,0.00,CLR,CLR,0.00,WeatherDisplay:10.36,2013-01-26 03:40:00,
2013-01-25 20:55:00,37.6,0.0,30.08,NNW,329,0.0,0.0,0,0.00,CLR,CLR,0.00,WeatherDisplay:10.36,2013-01-26 03:55:00,
2013-01-25 21:10:00,36.9,0.0,30.08,NNW,329,0.0,0.0,0,0.00,CLR,CLR,0.00,WeatherDisplay:10.36,2013-01-26 04:10:00,
2013-01-25 21:25:00,38.1,0.0,30.08,WNW,285,0.0,6.0,0,0.00,CLR,CLR,0.00,WeatherDisplay:10.36,2013-01-26 04:25:00,
2013-01-25 21:40:00,37.7,0.0,30.08,West,281,0.0,0.0,0,0.00,CLR,CLR,0.00,WeatherDisplay:10.36,2013-01-26 04:40:00,
2013-01-25 21:55:00,37.3,0.0,30.08,West,281,0.0,0.0,0,0.00,CLR,CLR,0.00,WeatherDisplay:10.36,2013-01-26 04:55:00,
2013-01-25 22:10:00,37.1,0.0,30.07,West,281,0.0,0.0,0,0.00,CLR,CLR,0.00,WeatherDisplay:10.36,2013-01-26 05:10:00,
2013-01-25 22:25:00,36.0,0.0,30.06,West,281,0.0,0.0,0,0.00,CLR,CLR,0.00,WeatherDisplay:10.36,2013-01-26 05:25:00,
2013-01-25 22:40:00,36.1,0.0,30.07,West,281,0.0,0.0,0,0.00,CLR,CLR,0.00,WeatherDisplay:10.36,2013-01-26 05:40:00,
2013-01-25 22:55:00,35.7,0.0,30.07,WNW,285,0.0,3.0,0,0.00,CLR,CLR,0.00,WeatherDisplay:10.36,2013-01-26 05:55:00,
2013-01-25 23:10:00,34.8,0.0,30.07,WNW,285,0.0,0.0,0,0.00,CLR,CLR,0.00,WeatherDisplay:10.36,2013-01-26 06:10:00,
2013-01-25 23:25:00,34.7,0.0,30.06,WNW,285,0.0,0.0,0,0.00,CLR,CLR,0.00,WeatherDisplay:10.36,2013-01-26 06:25:00,
2013-01-25 23:40:00,34.4,0.0,30.06,WNW,285,0.0,0.0,0,0.00,CLR,CLR,0.00,WeatherDisplay:10.36,2013-01-26 06:40:00,
2013-01-25 23:55:00,33.4,0.0,30.06,WNW,302,5.0,8.0,0,0.00,CLR,CLR,0.00,WeatherDisplay:10.36,2013-01-26 06:55:00,